Regional Weather Roundup
Issued by NWS

Home | Current Version | Previous Version | Graphics & Text | Print | Product List | Glossary On
Versions: 1 2 3 4 5 6 7 8 9 10 11 12 13 14 15 16 17 18 19 20 21 22 23 24 25 26 27 28 29 30 31 32 33 34 35 36 37 38 39 40 41 42 43 44 45 46 47 48 49 50
000
ASUS43 KDTX 241401
RWRMI
MICHIGAN HOURLY REGIONAL WEATHER ROUNDUP
NATIONAL WEATHER SERVICE DETROIT/PONTIAC MI
1000 AM EDT THU APR 24 2014

NOTE: "FAIR" INDICATES FEW OR NO CLOUDS BELOW 12,000 FEET WITH NO
SIGNIFICANT WEATHER AND/OR OBSTRUCTION TO VISIBILITY.

MIZ047>049-052>055-059>063-066>070-074>076-081>083-241500-
SOUTHEAST LOWER MICHIGAN

CITY           SKY/WX    TMP DP  RH WIND       PRES   REMARKS
ADRIAN         CLOUDY    48  22  35 SE12      30.16F
ALMA           CLOUDY    44  21  40 E8        30.15F
ANN ARBOR      CLOUDY    44  13  28 SE7       30.18R
BAD AXE        PTSUNNY   42  22  44 CALM      30.19R
CARO           CLOUDY    45  21  38 SE3       30.17S
DETROIT CITY   CLOUDY    46  16  30 SE6       30.20S
DETROIT        CLOUDY    45   9  23 E8        30.19S
FLINT          CLOUDY    47  15  27 SE9       30.18R
GROSSE ILE     CLOUDY    45  12  26 E6        30.17F
HILLSDALE      CLOUDY    47  20  34 SE13      30.13F
HOWELL         CLOUDY    43  15  32 SE8       30.16F

CITY           SKY/WX    TMP DP  RH WIND       PRES   REMARKS
JACKSON        CLOUDY    47  26  44 SE14      30.14F
LAMBERTVILLE   CLOUDY    46  21  36 SE8       30.18S
LANSING        CLOUDY    47  27  45 SE13      30.14F
LAPEER         CLOUDY    43  18  36 SE5       30.18S
MASON          CLOUDY    46  27  47 SE13      30.14F
MONROE         CLOUDY    45  25  45 E10       30.17S
MT. CLEMENS    CLOUDY    43  22  43 SE3       30.18F
PONTIAC        CLOUDY    44  11  26 SE10      30.17R
PORT HOPE        N/A     41  28  60 N3        30.17S
PORT HURON     PTSUNNY   45  23  42 CALM      30.19S
TRI CITIES     CLOUDY    46  20  35 E8        30.18S
TROY           CLOUDY    45  16  31 CALM      30.19S
SAGINAW HB     CLOUDY    45  19  36 SE6       30.17F
YPSILANTI      CLOUDY    48  13  24 SE8       30.18S
$$
MIZ043>046-050>051-056>058-064>065-071>073-077>080-241500-
SOUTHWEST LOWER MICHIGAN

CITY           SKY/WX    TMP DP  RH WIND       PRES   REMARKS
BATTLE CREEK   CLOUDY    48  27  44 SE12      30.11F
BENTON HARBOR  CLOUDY    52  35  52 SE13      30.05F
BIG RAPIDS     CLOUDY    44  23  44 SE18      30.10F
COLDWATER      CLOUDY    46  28  49 SE10      30.12S
FREMONT        PTSUNNY   46  27  47 SE9       30.08F
HOLLAND        LGT RAIN  48  38  68 E10       30.08F
GRAND RAPIDS   CLOUDY    50  31  48 SE10      30.10F
IONIA          CLOUDY    46  31  54 SE12      30.12S
KALAMAZOO      CLOUDY    49  30  48 SE12G17   30.10F
LUDINGTON      CLOUDY    46  24  43 SE9       30.07F
MARSHALL       CLOUDY    47  29  51 SE13      30.12S
MOUNT PLEASANT CLOUDY    45  13  27 E10       30.15S
MUSKEGON       LGT RAIN  46  35  65 SE8       30.08F
SOUTH HAVEN    CLOUDY    51  34  51 E9G17     30.07S
$$
MIZ016>042-241500-
NORTHERN LOWER MICHIGAN

CITY           SKY/WX    TMP DP  RH WIND       PRES   REMARKS
ALPENA         CLOUDY    43  27  53 VRB3      30.17S
BEAVER ISLAND  CLOUDY    38  24  56 E7        30.13F WCI  33
BELLAIRE       CLOUDY    44  23  44 E3        30.12F
CADILLAC       CLOUDY    41  17  38 SE12      30.10F
CHARLEVOIX     CLOUDY    38  26  62 E6        30.15F WCI  34
FRANKFORT      PTSUNNY   45  17  33 SE8       30.08F
GAYLORD        CLOUDY    38  22  52 SE9       30.13F WCI  31
GRAYLING       CLOUDY    40  22  48 E6        30.14F
HARBOR SPRINGS CLOUDY    40  25  54 E6        30.14S
HOUGHTON LAKE  CLOUDY    42  18  37 SE6       30.14F
MANISTEE       CLOUDY    46  19  34 SE8       30.08F
OSCODA         PTSUNNY   45  24  43 CALM      30.17F
PELLSTON       PTSUNNY   40  24  53 S6        30.16S
ROGERS CITY    PTSUNNY   42  30  62 NE6       30.18S
TRAVERSE CITY  CLOUDY    45  18  34 SE8       30.10F
$$
MIZ007>008-015-241500-
EASTERN UPPER MICHIGAN

CITY           SKY/WX    TMP DP  RH WIND       PRES   REMARKS
KINROSS        CLOUDY    43  25  49 SE7       30.15S
MACKINAC ISLAN PTSUNNY   40  26  55 E5        30.15S
NEWBERRY       CLOUDY    38  27  63 E3        30.13S
S. S. MARIE    CLOUDY    39  25  57 VRB3      30.16R
MUNISING         N/A     41  21  44 S6        30.11S
$$
MIZ004>006-011>014-085-241500-
CENTRAL UPPER MICHIGAN

CITY           SKY/WX    TMP DP  RH WIND       PRES   REMARKS
MANISTIQUE     CLOUDY    37  26  62 E6        30.12F WCI  33
ESCANABA       CLOUDY    39  25  56 E10       30.09S WCI  32
MENOMINEE      CLOUDY    37  25  60 SE8       30.06F WCI  31
SAWYER-GWINN   CLOUDY    37  21  52 SE9       30.09S WCI  31
$$
MIZ001>003-009>011-084-241500-
WESTERN UPPER MICHIGAN

CITY           SKY/WX    TMP DP  RH WIND       PRES   REMARKS
IRON MOUNTAIN  CLOUDY    38  17  42 SE8       30.04F WCI  32
HOUGHTON       CLOUDY    37  23  56 E8        30.06F WCI  31
COPPER HARBOR    N/A     40  23  50 VRB3      30.09S
IRONWOOD       CLOUDY    39  27  60 SE10G18   29.94S WCI  32
$$

ABBREVIATIONS USED IN REMARKS
   TC - TEMPERATURE IN CELSIUS
  WCI - WIND CHILL INDEX
   HX - HEAT INDEX
  VSB - VISIBILITY




USA.gov is the U.S. government's official web portal to all federal, state and local government web resources and services.